Kaltag, AK

9:59 AM AKDT on June 27, 2017 (GMT -0800)
Kaltag

Weather History for PAKV - September, 2012

Change the Weather History Date:

Tuesday, September 11, 2012

  Actual Average (PAGA) Record (PAGA)
Temperature  
Mean Temperature 38 °F -  
Max Temperature 52 °F 53 °F 69 °F (1999)
Min Temperature 24 °F 39 °F 24 °F (1959)
Degree Days  
Heating Degree Days 28    
Moisture  
Dew Point 29 °F    
Average Humidity 69    
Maximum Humidity 96    
Minimum Humidity 44    
Precipitation  
Precipitation 0.00 in - - ()
Sea Level Pressure  
Sea Level Pressure 29.90 in    
Wind  
Wind Speed 5 mph (NE)    
Max Wind Speed 16 mph    
Max Gust Speed 22 mph    
Visibility 10 miles    
Events Rain , Snow    
Averages and records for this station are not official NWS values.
T = Trace of Precipitation, MM = Missing Value Source: NWS Daily Summary

Daily Weather History Graph

Daily Weather History Graph

Search for Another Location

Airport or City:

Trip Planner

Search our weather history database for the weather conditions in past years. The results will help you decide how hot, cold, wet, or windy it might be!

Date:

Astronomy

Sep. 11, 2012 Rise Set
Actual Time 7:48 AM AKDT 9:12 PM AKDT
Civil Twilight 6:58 AM AKDT 10:02 PM AKDT
Nautical Twilight 5:53 AM AKDT 11:06 PM AKDT
Astronomical Twilight 4:29 AM AKDT 12:27 AM AKDT
Moon 1:51 AM AKDT (9/11) 7:37 PM AKDT (9/11)
Length of Visible Light 15h 04m
Length of Day
13h 24m
Waning Crescent, 20% of the Moon is Illuminated
Sep 11
Waning Crescent
Sep 15
New
Sep 22
First Quarter
Sep 29
Full
Oct 7
Last Quarter

Hourly Weather History & Observations

Time (AKDT) Temp. Windchill Dew Point Humidity Pressure Visibility Wind Dir Wind Speed Gust Speed Precip Events Conditions
12:53 AM 28.9 °F - 28.0 °F 96% 29.94 in 10.0 mi Calm Calm - N/A   Mostly Cloudy
1:53 AM 30.0 °F 26.5 °F 28.0 °F 92% 29.94 in 10.0 mi SW 3.5 mph - N/A   Clear
2:53 AM 27.0 °F - 26.1 °F 96% 29.95 in 10.0 mi Calm Calm - N/A   Clear
3:53 AM 26.1 °F - 24.1 °F 92% 29.95 in 10.0 mi Calm Calm - 0.00 in   Clear
4:53 AM 26.1 °F - 24.1 °F 92% 29.95 in 10.0 mi Calm Calm - 0.00 in   Clear
5:53 AM 24.1 °F - 23.0 °F 96% 29.96 in 10.0 mi Calm Calm - 0.00 in   Clear
6:53 AM 24.1 °F - 23.0 °F 96% 29.95 in 10.0 mi Calm Calm - 0.00 in   Clear
7:53 AM 34.0 °F 26.6 °F 30.0 °F 85% 29.94 in 10.0 mi NE 9.2 mph - 0.00 in Snow Light Snow
8:53 AM 36.0 °F 29.6 °F 30.9 °F 82% 29.94 in 10.0 mi NE 8.1 mph - 0.00 in   Clear
9:53 AM 39.9 °F 33.4 °F 30.9 °F 70% 29.93 in 10.0 mi ENE 10.4 mph 20.7 mph N/A   Clear
10:53 AM 41.0 °F 33.9 °F 30.9 °F 67% 29.94 in 10.0 mi NE 12.7 mph 19.6 mph 0.00 in Rain Light Rain
11:53 AM 44.1 °F 37.7 °F 30.0 °F 58% 29.92 in 10.0 mi NE 12.7 mph - 0.00 in Rain Light Rain
12:53 PM 45.0 °F 37.9 °F 30.0 °F 56% 29.91 in 10.0 mi NE 16.1 mph 20.7 mph 0.00 in Rain Light Rain
1:53 PM 46.9 °F - 30.0 °F 52% 29.89 in 10.0 mi NE 13.8 mph 20.7 mph 0.00 in Rain Light Rain
2:53 PM 48.9 °F - 30.0 °F 48% 29.88 in 10.0 mi NE 13.8 mph - 0.00 in Rain Light Rain
3:53 PM 50.0 °F - 30.9 °F 48% 29.87 in 10.0 mi NE 11.5 mph 21.9 mph 0.00 in Rain Light Rain
4:53 PM 51.1 °F - 30.0 °F 44% 29.85 in 10.0 mi NE 12.7 mph 18.4 mph 0.00 in Rain Light Rain
5:53 PM 51.1 °F - 30.9 °F 46% 29.84 in 10.0 mi NNE 11.5 mph - 0.00 in   Clear
6:53 PM 50.0 °F - 30.0 °F 46% 29.83 in 10.0 mi NE 8.1 mph - 0.00 in   Scattered Clouds
7:53 PM 48.9 °F - 30.9 °F 50% 29.82 in 10.0 mi NE 6.9 mph - N/A   Clear
8:53 PM 46.0 °F 42.5 °F 30.9 °F 56% 29.82 in 10.0 mi NE 6.9 mph - N/A   Clear
9:53 PM 44.1 °F 38.6 °F 30.0 °F 58% 29.82 in 10.0 mi NNE 10.4 mph - N/A   Clear
10:53 PM 43.0 °F 38.2 °F 30.0 °F 60% 29.82 in 10.0 mi NNE 8.1 mph - N/A   Clear
11:53 PM 42.1 °F 37.7 °F 30.0 °F 62% 29.82 in 10.0 mi NE 6.9 mph 17.3 mph N/A   Clear